Location: Ar Ranvel
(48.3000°N, 4.8833°W)
Time: 22:10:08
(UTC+00:00)

ISS - Pass Details

Date: 07 October 2021
Orbit: 417 x 423 km, 51.6° (Epoch: 16 October)

Event Time Altitude Azimuth Distance (km) Brightness Sun altitude
Rises 18:21:11 0° 287° (WNW) 2,364 1.7 -6.6°
Reaches altitude 10° 18:23:38 10° 270° (W) 1,498 0.9 -7.1°
Maximum altitude 18:26:11 20° 221° (SW) 1,025 -1.2 -7.5°
Drops below altitude 10° 18:28:43 10° 171° (S) 1,492 -1.0 -7.9°
Sets 18:31:09 0° 154° (SSE) 2,352 -0.2 -8.3°
